Regional Weather Roundup
Issued by NWS

Home | Current Version | Previous Version | Graphics & Text | Print | Product List | Glossary On
Versions: 1 2 3 4 5 6 7 8 9 10 11 12 13 14 15 16 17 18 19 20 21 22 23 24 25 26
000
ASUS45 KBOU 121710
RWRCO

WEATHER ROUNDUP FOR COLORADO
NATIONAL WEATHER SERVICE DENVER/BOULDER CO
1000 AM MST TUE DEC 12 2017

NOTE: "FAIR" INDICATES FEW OR NO CLOUDS BELOW 12000 FEET WITH NO
SIGNIFICANT WEATHER AND/OR OBSTRUCTIONS TO VISIBILITY.

COZ001>005-013-030-031-121800-
...NORTHWEST COLORADO...

CITY           SKY/WX    TMP DP  RH WIND       PRES   REMARKS
CRAIG          FAIR      22  14  71 CALM      30.55R
HAYDEN         FAIR      29  18  63 E10       30.55S WCI  20
MEEKER         FAIR      33  17  51 CALM      30.54S
RABBIT EARS PA FAIR      32   9  37 W5        30.58R WCI  27
STEAMBOAT SPGS FAIR      23  15  72 CALM      30.55S
WALDEN         FAIR      25  10  54 CALM      30.55R
$$

COZ006>008-011-121800-
...WEST CENTRAL VALLEYS...

CITY           SKY/WX    TMP DP  RH WIND       PRES   REMARKS
GRAND JUNCTION FAIR      37  10  32 SE8       30.54R
MONTROSE       FAIR      36   4  26 CALM      30.57F
EAGLE          FAIR      18  10  71 CALM      30.65F
RIFLE          FAIR      33  12  41 VRB3      30.56F
DELTA          FAIR      29   6  37 CALM      30.57S
NUCLA          FAIR      28   1  31 CALM      30.57R
$$

COZ017>023-064>068-121800-
...SOUTHWEST COLORADO...

CITY           SKY/WX    TMP DP  RH WIND       PRES   REMARKS
DURANGO        FAIR      36   5  27 NE3       30.52R
CORTEZ         FAIR      37   5  26 CALM      30.52S
PAGOSA SPRINGS FAIR      42  -2  16 E3        30.53S
TELLURIDE      FAIR      40   0  18 CALM      30.58S
WOLF CREEK PAS FAIR      36   1  23 CALM      30.70R
$$

COZ009-010-012-014-032>034-037-058>063-121800-
...CENTRAL COLORADO...

CITY           SKY/WX    TMP DP  RH WIND       PRES   REMARKS
ASPEN          FAIR      37  13  37 N3        30.54F
BUENA VISTA    FAIR      44  10  25 NW13      30.50F
COPPER MTN     NOT AVBL
BERTHOUD PASS  FAIR      23  10  58 NW21G29   30.60R WCI   8
COTTONWOOD PAS FAIR      48   5  17 SW3       30.55F
GUNNISON       FAIR      19   6  57 CALM      30.63
KREMMLING      FAIR      18  10  73 CALM      30.64F
LEADVILLE      FAIR      35   9  33 NE7       30.55F WCI  29
MONARCH PASS   FAIR      32   5  32 SW15G22   30.73S WCI  22
SALIDA         FAIR      42  10  26 CALM      30.58S
SUNLIGHT       FAIR      34  12  40 CALM      30.65S
WILKERSON PASS FAIR      36   9  32 N12G18    30.59S
$$

COZ069>075-121800-
...SAN LUIS VALLEY/SANGRE DE CRISTO MOUNTAINS...

CITY           SKY/WX    TMP DP  RH WIND       PRES   REMARKS
ALAMOSA        FAIR      32   3  29 CALM      30.54S
DEL NORTE      FAIR      39   3  22 NW5       30.55R
LA VETA PASS   FAIR      34   3  27 SW20        N/A  WCI  22
SAGUACHE       FAIR      32   3  29 SE3       30.55S
$$

COZ035-036-038>040-121800-
...NORTHERN COLORADO FRONT RANGE...

CITY           SKY/WX    TMP DP  RH WIND       PRES   REMARKS
DENVER INTL AP FAIR      55  11  17 SW12      30.32S
DMNS CITY PARK NOT AVBL
AURORA         MOSUNNY   54  11  18 S10       30.33F
FRONT RANGE AP MOSUNNY   57  12  17 S12G21    30.33F
ERIE MUNI ARPT FAIR      52  12  20 S5        30.36F
BOULDER MUN AP FAIR      48  16  27 N5        30.30F
CENTENNIAL     FAIR      56  15  20 S8        30.34F
BROOMFIELD     MOSUNNY   48  16  27 VRB5      30.33F
FORT COLLINS   FAIR      44  16  32 SE3       30.32F
LONGMONT       NOT AVBL
$$

COZ041-046-047-076>085-087-088-121800-
...PIKES PEAK/PALMER DIVIDE AND SOUTHERN FOOTHILLS...

CITY           SKY/WX    TMP DP  RH WIND       PRES   REMARKS
COLO. SPRINGS  FAIR      51  10  19 SW3       30.40S
A. F. ACADEMY  FAIR      49   6  17 CALM      30.39F
SCHRIEVER AFB  FAIR      52   5  14 SW6       30.39S
CHEYENNE MTN   FAIR      51   6  16 SE3       30.35S
ELLICOTT         N/A    N/A N/A N/A W3        30.37F
FALCON         FAIR      52   3  14 SW7       30.42R
FORT CARSON    FAIR      47   6  18 CALM      30.37F
LIMON          FAIR      52  12  20 W6        30.34F
MONUMENT HILL  FAIR      54  12  19 W5        30.41R
CANON CITY     FAIR      52  12  20 SW6       30.38F
WALSENBURG     FAIR      55   7  14 CALM      30.41S
TRINIDAD       FAIR      50   9  19 SW12      30.41F
$$

COZ042>045-048>051-090-091-121800-
...NORTHEAST COLORADO...

CITY           SKY/WX    TMP DP  RH WIND       PRES   REMARKS
GREELEY ARPT   FAIR      35  15  44 CALM      30.33F
AKRON          FAIR      42  10  27 W17       30.29F
BURLINGTON     FAIR      56  17  21 NW9       30.31F
WRAY           FAIR      48  14  25 W12       30.29F
YUMA           FAIR      46  14  27 W13       30.29F
STERLING       FAIR      36  16  44 S7        30.29F
HOLYOKE        FAIR      54  18  24 W8        30.27F
FORT MORGAN    FAIR      42  10  27 W12       30.32S
$$

COZ086-089-092>099-121800-
...SOUTHEAST COLORADO...

CITY           SKY/WX    TMP DP  RH WIND       PRES   REMARKS
PUEBLO         FAIR      42  10  27 W8        30.38F
LA JUNTA       FAIR      41  10  28 W12       30.38F
LAMAR          FAIR      44   9  23 W15       30.36F
SPRINGFIELD      N/A     52  10  18 SW9       30.36F
$$




USA.gov is the U.S. government's official web portal to all federal, state and local government web resources and services.